CST,Max TemperatureF,Mean TemperatureF,Min TemperatureF,Max Dew PointF,MeanDew PointF,Min DewpointF,Max Humidity, Mean Humidity, Min Humidity, Max Sea Level PressureIn, Mean Sea Level PressureIn, Min Sea Level PressureIn, Max VisibilityMiles, Mean VisibilityMiles, Min VisibilityMiles, Max Wind SpeedMPH, Mean Wind SpeedMPH, Max Gust SpeedMPH,PrecipitationIn, CloudCover, Events, WindDirDegrees
2011-11-1,57,51,44,39,31,26,70,54,38,30.18,29.96,29.73,,,,23,14,28,0.00,,,344
2011-11-2,47,36,24,28,23,15,70,54,38,30.35,30.30,30.19,,,,22,12,26,0.00,,,342
2011-11-3,55,40,24,23,18,14,74,47,19,30.34,30.25,30.12,,,,18,9,23,0.00,,,219
2011-11-4,57,46,34,27,20,15,55,38,20,30.12,29.97,29.82,,,,36,19,43,0.00,,,185
2011-11-5,58,47,35,38,32,28,89,63,36,29.81,29.59,29.41,,,,31,19,38,0.00,,,175
2011-11-6,52,45,38,43,28,14,86,60,33,29.91,29.59,29.38,,,,32,20,43,0.06,,,256
2011-11-7,45,34,22,24,21,17,81,61,40,30.27,30.16,29.96,,,,16,10,22,0.00,,,286
2011-11-8,51,34,17,25,19,13,84,56,28,30.27,30.21,30.14,,,,17,5,21,0.00,,,204
2011-11-9,45,36,26,23,20,18,69,53,36,30.22,30.17,30.14,,,,32,19,41,0.00,,,330
2011-11-10,41,33,24,22,18,16,81,59,37,30.24,30.11,29.83,,,,23,11,30,0.00,,,302
2011-11-11,56,44,32,25,22,15,52,41,29,29.79,29.61,29.49,,,,18,9,24,0.00,,,263
2011-11-12,59,44,28,25,21,16,58,41,23,29.47,29.29,29.16,,,,21,9,25,0.00,,,214
2011-11-13,50,42,33,30,26,22,75,57,38,29.38,29.32,29.19,,,,25,12,31,0.00,,,297
2011-11-14,49,38,27,29,24,18,70,52,34,29.56,29.46,29.37,,,,29,13,37,0.00,,,265
2011-11-15,41,32,22,28,21,13,92,68,44,30.01,29.75,29.52,,,,33,15,40,0.00,,,312
2011-11-16,30,21,12,17,12,6,74,60,46,30.27,30.17,30.04,,,,29,14,35,0.00,,,311
2011-11-17,32,20,7,12,9,5,83,63,43,30.27,30.07,29.68,,,,22,9,28,0.00,,,177
2011-11-18,41,29,17,29,17,9,75,60,44,29.90,29.72,29.63,,,,20,8,24,0.00,,,353
2011-11-19,26,18,10,17,10,3,80,74,67,30.38,30.09,29.89,,,,28,18,33,0.10,,,10
2011-11-20,18,8,-3,8,2,-8,87,77,67,30.48,30.40,30.30,,,,16,7,20,0.00,,,189
2011-11-21,30,19,7,21,12,4,92,81,69,30.32,30.25,30.18,,,,14,6,16,0.00,,,161
2011-11-22,39,31,22,31,27,21,96,83,70,30.18,30.08,30.03,,,,17,7,20,0.00,,,199
2011-11-23,51,39,26,31,28,26,81,64,46,30.03,29.96,29.81,,,,22,10,29,0.00,,,211
2011-11-24,59,45,30,31,29,26,75,54,33,29.79,29.70,29.64,,,,20,6,22,0.00,,,215
2011-11-25,40,33,26,32,28,22,85,78,70,29.73,29.67,29.62,,,,23,7,29,0.00,,,348
2011-11-26,36,33,30,31,26,19,89,75,61,30.32,30.09,29.77,,,,37,25,44,0.00,,,342
2011-11-27,37,28,18,19,16,13,80,64,47,30.37,30.27,30.09,,,,22,9,28,0.00,,,329
2011-11-28,54,39,23,32,21,10,75,53,30,30.38,30.12,29.94,,,,30,14,36,0.00,,,314
2011-11-29,43,29,14,22,18,11,80,58,36,30.45,30.30,30.01,,,,16,8,24,0.00,,,231
2011-11-30,39,35,30,27,23,18,85,65,44,30.27,30.00,29.91,,,,21,10,24,0.00,,,355